Location: Auttagershofen
(48.1940°N, 10.0237°E)
Time: 02:01:54
(UTC+00:00)

USA 307 - Pass Details

Date: 18 January 2026
Orbit: 495 x 502 km, 54.0° (Epoch: 10 March)

Event Time Altitude Azimuth Distance (km) Brightness Sun altitude
Exits shadow 04:32:58 55° 68° (ENE) 612 3.2 -24.6°
Drops below altitude 10° 04:36:20 10° 106° (ESE) 1,691 6.3 -24.0°
Sets 04:38:30 0° 110° (ESE) 2,519 7.5 -23.7°
